• In Österreich
  • Länderverzeichnis
  • Für 7 Tage
  • Wassertemperatur
  • Satellitenkarten
  • Wetterkarte
  • News
  • Widgets
  • user-avatar
    Anmelden

    Stündliche Wetter Linz

    Heute, 24 Mai, Donnerstag

    Zeit Temperatur Niederschläge Wind Luftdruck Luftfeuchtigkeit
    00:00 +16°C° 0 mm 2 m/S 735 mmHg 92%
    01:00 +16°C° 0 mm 2 m/S 735 mmHg 93%
    02:00 +15°C° 0 mm 2 m/S 735 mmHg 93%
    03:00 +15°C° 0 mm 1 m/S 735 mmHg 93%
    04:00 +15°C° 0 mm 1 m/S 734 mmHg 94%
    05:00 +16°C° 0,1 mm 1 m/S 735 mmHg 91%
    06:00 +18°C° 0,1 mm 1 m/S 735 mmHg 88%
    07:00 +19°C° 0,1 mm 1 m/S 735 mmHg 85%
    08:00 +20°C° 0,1 mm 1 m/S 735 mmHg 82%
    09:00 +21°C° 0,1 mm 1 m/S 735 mmHg 78%
    10:00 +22°C° 0,1 mm 1 m/S 735 mmHg 74%
    11:00 +23°C° 0,1 mm 2 m/S 735 mmHg 71%
    12:00 +24°C° 0,1 mm 2 m/S 735 mmHg 68%
    13:00 +25°C° 0,1 mm 2 m/S 735 mmHg 65%
    14:00 +25°C° 0,4 mm 2 m/S 734 mmHg 68%
    15:00 +25°C° 0,4 mm 2 m/S 734 mmHg 70%
    16:00 +24°C° 0,4 mm 2 m/S 734 mmHg 73%
    17:00 +23°C° 0,6 mm 2 m/S 734 mmHg 78%
    18:00 +21°C° 0,6 mm 2 m/S 734 mmHg 83%
    19:00 +21°C° 0,6 mm 1 m/S 734 mmHg 88%
    20:00 +20°C° 0,3 mm 1 m/S 734 mmHg 90%
    21:00 +19°C° 0,3 mm 1 m/S 734 mmHg 92%
    22:00 +18°C° 0,3 mm 1 m/S 735 mmHg 94%
    23:00 +18°C° 0,1 mm 1 m/S 735 mmHg 94%

    Morgen, 25 Mai, Freitag

    Zeit Temperatur Niederschläge Wind Luftdruck Luftfeuchtigkeit
    00:00 +16°C° 0,1 mm 1 m/S 735 mmHg 94%
    01:00 +16°C° 0,1 mm 1 m/S 735 mmHg 95%
    02:00 +16°C° 0,1 mm 1 m/S 735 mmHg 95%
    03:00 +15°C° 0,1 mm 1 m/S 735 mmHg 95%
    04:00 +15°C° 0,1 mm 1 m/S 735 mmHg 95%
    05:00 +16°C° 0,1 mm 1 m/S 735 mmHg 93%
    06:00 +17°C° 0,1 mm 0 m/S 735 mmHg 90%
    07:00 +18°C° 0,1 mm 0 m/S 735 mmHg 87%
    08:00 +21°C° 0,4 mm 1 m/S 735 mmHg 85%
    09:00 +22°C° 0,4 mm 1 m/S 735 mmHg 82%
    10:00 +23°C° 0,4 mm 1 m/S 735 mmHg 79%
    11:00 +23°C° 1,2 mm 1 m/S 735 mmHg 79%
    12:00 +24°C° 1,2 mm 1 m/S 735 mmHg 78%
    13:00 +24°C° 1,2 mm 1 m/S 735 mmHg 77%
    14:00 +24°C° 0,8 mm 1 m/S 735 mmHg 76%
    15:00 +24°C° 0,8 mm 1 m/S 735 mmHg 75%
    16:00 +24°C° 0,8 mm 1 m/S 735 mmHg 74%
    17:00 +23°C° 0,4 mm 1 m/S 735 mmHg 79%
    18:00 +22°C° 0,4 mm 1 m/S 735 mmHg 84%
    19:00 +21°C° 0,4 mm 1 m/S 735 mmHg 90%
    20:00 +20°C° 0 mm 1 m/S 736 mmHg 91%
    21:00 +19°C° 0 mm 1 m/S 736 mmHg 93%
    22:00 +16°C° 0 mm 1 m/S 736 mmHg 94%
    23:00 +16°C° 0 mm 1 m/S 736 mmHg 94%

    übermorgen, 26 Mai, Samstag

    Zeit Temperatur Niederschläge Wind Luftdruck Luftfeuchtigkeit
    00:00 +16°C° 0 mm 1 m/S 736 mmHg 94%
    01:00 +15°C° 0 mm 1 m/S 736 mmHg 94%
    02:00 +15°C° 0 mm 1 m/S 736 mmHg 94%
    03:00 +15°C° 0 mm 1 m/S 736 mmHg 94%
    04:00 +14°C° 0 mm 1 m/S 736 mmHg 94%
    05:00 +16°C° 0 mm 1 m/S 736 mmHg 90%
    06:00 +19°C° 0 mm 1 m/S 737 mmHg 86%
    07:00 +20°C° 0 mm 1 m/S 737 mmHg 83%
    08:00 +22°C° 0 mm 1 m/S 737 mmHg 74%
    09:00 +24°C° 0 mm 1 m/S 737 mmHg 65%
    10:00 +26°C° 0 mm 2 m/S 737 mmHg 56%
    11:00 +27°C° 0 mm 2 m/S 737 mmHg 53%
    12:00 +28°C° 0 mm 2 m/S 737 mmHg 51%
    13:00 +29°C° 0 mm 2 m/S 737 mmHg 48%
    14:00 +28°C° 0,1 mm 2 m/S 737 mmHg 50%
    15:00 +28°C° 0,1 mm 2 m/S 736 mmHg 52%
    16:00 +28°C° 0,1 mm 2 m/S 736 mmHg 54%
    17:00 +27°C° 0 mm 2 m/S 736 mmHg 62%
    18:00 +25°C° 0 mm 2 m/S 737 mmHg 70%
    19:00 +23°C° 0 mm 2 m/S 737 mmHg 78%
    20:00 +21°C° 0 mm 2 m/S 737 mmHg 83%
    21:00 +21°C° 0 mm 1 m/S 737 mmHg 87%
    22:00 +19°C° 0 mm 1 m/S 738 mmHg 91%
    23:00 +19°C° 0 mm 1 m/S 737 mmHg 92%

    27 Mai, Sonntag

    Zeit Temperatur Niederschläge Wind Luftdruck Luftfeuchtigkeit
    00:00 +18°C° 0 mm 1 m/S 737 mmHg 93%
    01:00 +18°C° 0 mm 1 m/S 737 mmHg 93%
    02:00 +18°C° 0 mm 1 m/S 737 mmHg 94%
    03:00 +16°C° 0 mm 1 m/S 737 mmHg 94%
    04:00 +16°C° 0 mm 1 m/S 737 mmHg 94%
    05:00 +19°C° 0 mm 1 m/S 737 mmHg 89%
    06:00 +20°C° 0 mm 1 m/S 737 mmHg 84%
    07:00 +22°C° 0 mm 1 m/S 737 mmHg 79%
    08:00 +24°C° 0 mm 1 m/S 737 mmHg 72%
    09:00 +25°C° 0 mm 2 m/S 737 mmHg 66%
    10:00 +27°C° 0 mm 2 m/S 737 mmHg 60%
    11:00 +28°C° 0 mm 2 m/S 736 mmHg 57%
    12:00 +29°C° 0 mm 2 m/S 736 mmHg 54%
    13:00 +29°C° 0 mm 3 m/S 736 mmHg 51%
    14:00 +29°C° 0,1 mm 2 m/S 735 mmHg 52%
    15:00 +29°C° 0,1 mm 2 m/S 735 mmHg 53%
    16:00 +29°C° 0,1 mm 2 m/S 735 mmHg 54%
    17:00 +27°C° 0,1 mm 2 m/S 735 mmHg 63%
    18:00 +26°C° 0,1 mm 2 m/S 735 mmHg 71%
    19:00 +24°C° 0,1 mm 2 m/S 735 mmHg 79%
    20:00 +23°C° 0,1 mm 2 m/S 735 mmHg 83%
    21:00 +21°C° 0,1 mm 2 m/S 735 mmHg 86%
    22:00 +19°C° 0,1 mm 2 m/S 735 mmHg 90%
    23:00 +20°C° 0 mm 1 m/S 735 mmHg 91%

    28 Mai, Montag

    Zeit Temperatur Niederschläge Wind Luftdruck Luftfeuchtigkeit
    00:00 +19°C° 0 mm 1 m/S 735 mmHg 92%
    01:00 +19°C° 0 mm 1 m/S 735 mmHg 93%
    02:00 +19°C° 0 mm 1 m/S 735 mmHg 93%
    03:00 +18°C° 0 mm 1 m/S 735 mmHg 93%
    04:00 +18°C° 0 mm 1 m/S 735 mmHg 93%
    05:00 +19°C° 0 mm 1 m/S 735 mmHg 88%
    06:00 +21°C° 0 mm 1 m/S 735 mmHg 84%
    07:00 +22°C° 0 mm 1 m/S 735 mmHg 79%
    08:00 +24°C° 0 mm 1 m/S 735 mmHg 73%
    09:00 +26°C° 0 mm 2 m/S 735 mmHg 66%
    10:00 +28°C° 0 mm 2 m/S 735 mmHg 60%
    11:00 +29°C° 0 mm 2 m/S 735 mmHg 56%
    12:00 +30°C° 0 mm 3 m/S 735 mmHg 52%
    13:00 +31°C° 0 mm 3 m/S 735 mmHg 49%
    14:00 +31°C° 0,1 mm 3 m/S 734 mmHg 50%
    15:00 +31°C° 0,1 mm 3 m/S 734 mmHg 51%
    16:00 +31°C° 0,1 mm 3 m/S 734 mmHg 51%
    17:00 +29°C° 0 mm 3 m/S 734 mmHg 59%
    18:00 +27°C° 0 mm 3 m/S 734 mmHg 66%
    19:00 +26°C° 0 mm 3 m/S 734 mmHg 74%
    20:00 +24°C° 0 mm 2 m/S 734 mmHg 76%
    21:00 +23°C° 0 mm 2 m/S 734 mmHg 79%
    22:00 +21°C° 0 mm 2 m/S 734 mmHg 81%
    23:00 +20°C° 0 mm 2 m/S 734 mmHg 83%

    29 Mai, Dienstag

    Zeit Temperatur Niederschläge Wind Luftdruck Luftfeuchtigkeit
    00:00 +20°C° 0 mm 2 m/S 734 mmHg 85%
    01:00 +19°C° 0 mm 2 m/S 734 mmHg 87%
    02:00 +19°C° 0 mm 2 m/S 734 mmHg 87%
    03:00 +19°C° 0 mm 2 m/S 734 mmHg 88%
    04:00 +19°C° 0 mm 1 m/S 734 mmHg 88%
    05:00 +21°C° 0 mm 1 m/S 734 mmHg 85%
    06:00 +22°C° 0 mm 1 m/S 734 mmHg 81%
    07:00 +23°C° 0 mm 2 m/S 735 mmHg 77%
    08:00 +25°C° 0 mm 2 m/S 735 mmHg 70%
    09:00 +26°C° 0 mm 2 m/S 735 mmHg 64%
    10:00 +28°C° 0 mm 2 m/S 735 mmHg 57%
    11:00 +29°C° 0 mm 2 m/S 734 mmHg 54%
    12:00 +30°C° 0 mm 3 m/S 734 mmHg 51%
    13:00 +31°C° 0 mm 3 m/S 734 mmHg 48%
    14:00 +30°C° 0 mm 3 m/S 733 mmHg 48%
    15:00 +30°C° 0 mm 3 m/S 733 mmHg 49%
    16:00 +30°C° 0 mm 3 m/S 733 mmHg 50%
    17:00 +29°C° 0 mm 3 m/S 733 mmHg 57%
    18:00 +27°C° 0 mm 3 m/S 733 mmHg 64%
    19:00 +25°C° 0 mm 3 m/S 733 mmHg 71%
    20:00 +24°C° 0,2 mm 2 m/S 733 mmHg 75%
    21:00 +21°C° 0,2 mm 2 m/S 733 mmHg 79%
    22:00 +20°C° 0,2 mm 2 m/S 733 mmHg 84%
    23:00 +20°C° 0,7 mm 1 m/S 733 mmHg 87%
    Mehr zeigen